DELTA 1 DEB, 12537

Orbit data source: Space-Track

DELTA 1 DEB, 12537 is space debris in SSO originally from a launch on Thu, 29 Jul 1976 UTC launched from the Air Force Western Test Range (AFWTR). Debris objects in space refer to the collection of defunct objects orbiting the Earth. Examples of debris include non-operational satellites, rocket bodies, and fragments generated from explosions, collisions, or faulty payload assembly.

Loading next visibility...
Identifier
12537, 1976-077DS
Orbit
SSO
Country
Flag of USUS
Related business
Manufacturer
Unknown
Mission
Spacecraft
Bus & Motor
Unknown
Mass
Unknown
Launch date (UTC)
1976-07-29 (50 years ago)
Launch vehicle
Unknown
Launch site
Air Force Western Test Range (AFWTR)
Object type
Payload
Rocket body
Debris
Shape & HBR
Unknown shape, 0.1 m
Radar Cross Section
Small (<0.1 m²)

Expand to show TLE details & history
Last TLE update: 13 hours ago

TLE from 13 hours ago
0 DELTA 1 DEB
1 12537U 76077DS  26033.49543801 -.00000022  00000-0  20300-3 0  9996
2 12537 102.2955   1.9793 0161143 149.4583 336.1140 12.11595403 20510
Epoch: 2026-02-02T11:53Z
TLE epoch observation values (Epoch: 2026-02-02T11:53:25.844Z)
Latitude
53.4364°
Longitude
-112.06508°
Altitude
1,520.205 km
Speed
7.162 km/s
True Right ascension
13h 15m 55s
True Declination
53° 17' 15"
Sunlit
Object was in daylight at epoch
Visualization orbit readout
Latitude
Unknown
Longitude
Unknown
Altitude
Unknown
Speed
Unknown
Apparent Right ascension
Unknown
Apparent Declination
Unknown
Sunlit
N/A
Visualization observer readout
Local Sidereal Time
02:47:14
Azimuth
Unknown
Elevation
Unknown
Doppler factor
Unknown
Orbital elements
Apogee altitude
1,755.985 km
Perigee altitude
1,497.991 km
Semi-major axis
8,005.125 km
Eccentricity
0.01611
Inclination
102.2955°
RAAN
1.9793°
Arg. of periapsis
149.4583°
True anomaly
335.3523°
Mean anomaly
336.114°
Eccentric anomaly
335.73456°
Mean motion
3.03034 °/min
Orbital period
118.8 mins
BSTAR
0.000203
Loading maneuver chart data...
Computing Atmospheric mass density...
Loading historical data...
Loading historical data...
Loading historical data...
Loading historical data...
Loading historical data...
Loading historical data...
Loading historical data...

Documentation

Showing up to 5 results
|